Погода в Новоигоревке

Украина / Кировоградская область     48°06′37″N   32°31′35″E
темп.,
°C
ветер,
м/с
пор.,
м/с
влажн.,
%
обл.,
%
осадки,
мм/ч
давл.,
гПа
погр.,
м
19 мая, ср
ср1900:00+11ююв411938 0.0 1000277
03:00+10ююв410925 0.0 1001213
06:00+10ю379752 0.0 1001207
09:00+14ююз567661 0.0 1002810
12:00+17ююз3461100 0.1 10021418
15:00+19юз345668 0.7 10031430
18:00+15з8979100 1.8 1004853
21:00+12зсз71188100 1.8 1006636
20 мая, чт
чт2000:00+12з71289100 0.1 1007729
03:00+12з71388100 0.5 1008503
06:00+10з4119316 0.0 1009320
09:00+16зсз456563 0.0 1010798
12:00+19з3452100 0.0 10101493
15:00+18зюз5558100 0.3 10111133
18:00+14з3485100 0.9 1011220
21:00+13ссв3591100 3.1 1012142
21 мая, пт
пт2100:00+12всв4790100 0.8 1012189
03:00+12св4693100 3.7 1012137
06:00+12св4991100 0.4 1012296
09:00+16св71175100 0.4 1012688
12:00+16св7972100 0.1 1013572
15:00+16св6106962 0.1 1013732
18:00+17ссв797192 0.0 1013687
21:00+14ссв7137588 0.0 1014383
22 мая, сб
сб2200:00+13ссв61376100 0.0 1014369
03:00+13ссв61377100 0.0 1013347
06:00+13с71482100 0.0 1014345
09:00+17ссв71169100 0.0 1014600
12:00+21ссв7862100 0.0 10141070
15:00+23ссв6657100 0.0 10131525
18:00+20ссв6870100 0.0 1012635
21:00+16с4888100 0.0 1012152
23 мая, вс
вс2300:00+15ссв4794100 0.0 1011130
03:00+14с359630 0.0 101186
06:00+14ссз479697 0.0 1010167
09:00+19с46744 0.0 1010609
12:00+23с55555 0.0 10091132
15:00+25ссз554863 0.0 10091814
18:00+24ссз44515 0.0 10091747
21:00+18с456919 0.0 101057